CZ-6A DEB, 54470

Orbit data source: Space-Track

CZ-6A DEB, 54470 is space debris in SSO originally from a launch on Fri, 11 Nov 2022 UTC launched from the Taiyaun Space Center, China (TSC). Debris objects in space refer to the collection of defunct objects orbiting the Earth. Examples of debris include non-operational satellites, rocket bodies, and fragments generated from explosions, collisions, or faulty payload assembly.

Loading next visibility...
Identifier
54470, 2022-151GW
Orbit
SSO
Country
Flag of CNCN / PRC
Related business
Manufacturer
SAST
Mission
Spacecraft
Bus & Motor
Unknown
Mass
Unknown
Launch date (UTC)
2022-11-11 (4 years ago)
Launch vehicle
Unknown
Launch site
Taiyaun Space Center, China (TSC)
Object type
Payload
Rocket body
Debris
Shape & HBR
Unknown shape, 0.1 m
Radar Cross Section
Medium (>0.1 m² and <1 m²)

Expand to show TLE details & history
Last TLE update: 22 hours ago

TLE from 22 hours ago
0 CZ-6A DEB
1 54470U 22151GW  26235.40112623  .00008347  00000-0  14493-2 0  9993
2 54470  98.6275 297.0100 0074321 103.5941 257.3553 14.66645884198323
Epoch: 2026-08-23T09:37Z
TLE epoch observation values (Epoch: 2026-08-23T09:37:37.306Z)
Latitude
-0.00003°
Longitude
-179.09315°
Altitude
686.619 km
Speed
7.507 km/s
True Right ascension
19h 48m 02s
True Declination
0° 00' 00"
Sunlit
Object was in full shadow at epoch
Visualization orbit readout
Latitude
Unknown
Longitude
Unknown
Altitude
Unknown
Speed
Unknown
Apparent Right ascension
Unknown
Apparent Declination
Unknown
Sunlit
N/A
Visualization observer readout
Local Sidereal Time
22:17:34
Azimuth
Unknown
Elevation
Unknown
Doppler factor
Unknown
Orbital elements
Apogee altitude
721.263 km
Perigee altitude
616.514 km
Semi-major axis
7,047.025 km
Eccentricity
0.00743
Inclination
98.6275°
RAAN
297.01°
Arg. of periapsis
103.5941°
True anomaly
256.52602°
Mean anomaly
257.3553°
Eccentric anomaly
256.94049°
Mean motion
3.66889 °/min
Orbital period
98.12 mins
BSTAR
0.0014493
Loading maneuver chart data...
Computing Atmospheric mass density...
Loading historical data...
Loading historical data...
Loading historical data...
Loading historical data...
Loading historical data...
Loading historical data...
Loading historical data...

Documentation

Showing up to 5 results
|